Regional Weather Roundup
Issued by NWS Sterling, VA

Home | Current Version | Previous Version | Graphics & Text | Print | Product List | Glossary On
Versions: 1 2 3 4 5 6 7 8 9 10 11 12 13 14 15 16 17 18 19 20 21 22 23 24 25 26 27 28 29 30 31 32 33 34 35 36 37 38 39 40 41 42 43 44 45 46 47 48 49 50
000
ASUS41 KLWX 250410
RWRLWX

REGIONAL WEATHER ROUNDUP
NATIONAL WEATHER SERVICE BALTIMORE MD/WASHINGTON DC
1100 PM EST SAT JAN 24 2015

Note: "FAIR" indicates few or no clouds below 12,000 feet
with no significant weather and/or obstructions to visibility.
 TC=TEMPERATURE CELSIUS

 * =Non NWS site. Station does not report precipitation (e.g. rain,
    snow, etc.), thunder, or fog.

DCZ001-MDZ009-015-VAZ040>042-051-053>054-250500-
WASHINGTON METRO

CITY           SKY/WX    TMP DP  RH WIND       PRES   REMARKS
WASHINGTON NAT MOCLDY    40  25  55 NW8       29.66R
DULLES         MOCLDY    37  26  64 NW12      29.65R
ANDREWS AFB    PTCLDY    37  26  64 W12       29.65R WCI  29
FT BELVOIR     PTCLDY    38  26  61 W6        29.67R
QUANTICO       PTCLDY    33  28  81 W3        29.69R
COLLEGE PARK*  MOCLDY    37  28  70 CALM      29.65R
LEESBURG*      CLOUDY    37  30  75 NW17G25   29.65S WCI  28
MANASSAS*      CLOUDY    37  28  70 W6        29.67R
GAITHERSBURG*  CLOUDY    36  25  64 W9        29.67R WCI  29

$$

MDZ006>007-011-014-250500-
BALTIMORE METRO

CITY           SKY/WX    TMP DP  RH WIND       PRES   REMARKS
BWI AIRPORT    MOCLDY    37  26  64 W12G21    29.62R
MD SCIENCE CTR   N/A     37  26  64 MISG      29.63R
MARTIN STATE   PTCLDY    37  30  75 SW6       29.64R
ANNAPOLIS      CLEAR     37  26  64 W10       29.63R
FORT MEADE*    CLOUDY    34  28  80 W8        29.66R WCI  27

$$

MDZ012-015-019>023-250500-
MARYLAND EASTERN SHORE

CITY           SKY/WX    TMP DP  RH WIND       PRES   REMARKS
OCEAN CITY     CLEAR     36  28  73 W12G21    29.63R WCI  28
SALISBURY      CLEAR     39  28  64 W9        29.64R
BAY BRIDGE AP*   N/A     36  28  75 W9        29.64R WCI  29
CAMBRIDGE*     MOCLDY    37  28  70 W8        29.65R
EASTON*        MOCLDY    38  30  72 W6        29.68R

$$

MDZ017>025-250500-
SOUTHERN MARYLAND

CITY           SKY/WX    TMP DP  RH WIND       PRES   REMARKS
PATUXENT RIVER CLEAR     34  27  75 W6        29.67R
ST INIGOES     CLEAR     36  30  79 W3        29.67R
LEONARDTOWN*   CLEAR     32  28  86 W3        29.68R

$$

MDZ003>005-250500-
NORTH CENTRAL MARYLAND

CITY           SKY/WX    TMP DP  RH WIND       PRES   REMARKS
FREDERICK*     MOCLDY    37  27  65 W10G17    29.66R
HAGERSTOWN APT CLOUDY    36  25  64 NW13      29.63R WCI  27
WESTMINSTER*   CLOUDY    36  27  69 W14G21    29.60R WCI  27

$$

MDZ501>502-250500-
WESTERN MARYLAND

CITY           SKY/WX    TMP DP  RH WIND       PRES   REMARKS
OAKLAND*       FOG       27 N/A N/A W10G21    29.59R VSB 1/2 WCI  17
CUMBERLAND*    CLOUDY    36  28  75 SW5       29.72R

$$

VAZ025>031-250500-
SHENANDOAH VALLEY

CITY           SKY/WX    TMP DP  RH WIND       PRES   REMARKS
WINCHESTER*    CLOUDY    37  23  56 W12       29.65R
FRONT ROYAL*   CLOUDY    37  27  65 W7G22     29.65R
LURAY*         CLOUDY    37  30  75 SW7       29.68R
NEW MARKET*    CLOUDY    37  25  63 W6        29.68R
STAUNTON*      CLOUDY    37  25  62 W3        29.71R
WAYNESBORO*    CLOUDY    34  25  69 CALM      29.68S

$$

WVZ021-048>050-054>055-250500-
EASTERN WEST VIRGINIA PANHANDLE

CITY           SKY/WX    TMP DP  RH WIND       PRES   REMARKS
MARTINSBURG    CLOUDY    38  25  59 W23G32    29.65R WCI  27
PETERSBURG*    CLOUDY    37  25  60 NW3       29.71R

$$

VAZ036>039-050-250500-
CENTRAL FOOTHILLS

CITY           SKY/WX    TMP DP  RH WIND       PRES   REMARKS
CHARLOTTESVILL CLOUDY    38  24  57 MISG      29.69R
CULPEPER*      CLOUDY    39  28  65 CALM      29.68R
ORANGE*        MOCLDY    37  28  70 S6        29.69R
GORDONSVILLE*  FAIR      37  25  61 W5        29.68R
WARRENTON*     CLOUDY    37  31  79 W5        29.67R

$$

VAZ055>057-250500-
NORTH AND CENTRAL PIEDMONT

CITY           SKY/WX    TMP DP  RH WIND       PRES   REMARKS
FREDERICKSBRG* MOCLDY    34  29  82 W7        29.68R
STAFFORD*      CLOUDY    37  24  59 CALM      29.71R

$$

NCZ024-NYZ072-PAZ021-071-VAZ022-071-250500-
OTHER REGIONAL OBSERVATIONS

CITY           SKY/WX    TMP DP  RH WIND       PRES   REMARKS
NEW YORK CITY  MOCLDY    36  23  59 NW8       29.49R
PHILADELPHIA   PTCLDY    36  24  62 W15       29.58R WCI  27
PITTSBURGH     CLOUDY    31  30  96 W10       29.68R FOG     WCI  22
ROANOKE        CLOUDY    38  25  59 NW25G39   29.77R WCI  27
RICHMOND       CLEAR     37  26  64 W8        29.71R
RALEIGH        CLEAR     37  24  59 CALM      29.80R

$$

ANZ530>537-250500-
MARINE OBSERVATIONS

STATION/POSITION TIME  TEMP    WIND        PRES
                       AIR SEA DIR/SP/G
                 (UTC) (F)     (DEG/KT/KT) (MB)
THOMAS PT LIGHT  0400   38 37  280/ 13/ 15 1004.9R
BALT KEY BRIDGE  0400   38     260/ 12/ 15 1003.0R
COVE POINT       0400   37     320/  9/ 12 1004.2R
LEWISETTA        0400   38 38  270/  7/  8 1004.5R
SOLOMONS ISLAND  0400      38                N/A
PINEY POINT      0400          300/  6/  7   N/A

$$




USA.gov is the U.S. government's official web portal to all federal, state and local government web resources and services.